Location: Bambrugge
(50.9212°N, 3.9299°E)
Time: 02:19:17
(UTC+00:00)

Nadezhda 1 Rocket - Pass Details

Date: 23 May 2024
Orbit: 941 x 1004 km, 83.0° (Epoch: 16 June)

Event Time Altitude Azimuth Distance (km) Brightness Sun altitude
Rises 01:04:06 0° 350° (N) 3,744 8.1 -16.1°
Reaches altitude 10° 01:06:38 10° 350° (N) 2,791 7.3 -16.0°
Maximum altitude 01:13:05 88° 80° (E) 1,011 4.1 -15.6°
Enters shadow 01:18:19 16° 171° (S) 2,337 5.5 -15.3°
